This is the latest recevied weather packets stored in our database for station/object W4SNA-3. If no packets are shown the sender has not sent any weather packets the latest 10 day(s).
| Time | Temp. | Humidity | Pressure | Rain* | Wind** | Luminosity | Snow |
|---|---|---|---|---|---|---|---|
| 1787845831 | 23.33° C | 87% | 1017.8 hPa | 0 mm | - | - | - |
| 1787845530 | 23.89° C | 87% | 1017.8 hPa | 0 mm | - | - | - |
| 1787845230 | 23.89° C | 86% | 1017.9 hPa | 0 mm | - | - | - |
| 1787844930 | 23.89° C | 85% | 1018 hPa | 0 mm | - | - | - |
| 1787844630 | 24.44° C | 84% | 1017.9 hPa | 0 mm | - | - | - |
| 1787844330 | 24.44° C | 84% | 1017.9 hPa | 0 mm | - | - | - |
| 1787844034 | 24.44° C | 83% | 1018 hPa | 0 mm | - | - | - |
| 1787843730 | 24.44° C | 78% | 1017.9 hPa | 0 mm | - | - | - |
| 1787843430 | 24.44° C | 82% | 1017.8 hPa | 0 mm | - | - | - |
| 1787843130 | 24.44° C | 81% | 1017.8 hPa | 0 mm | - | - | - |
| 1787842830 | 24.44° C | 82% | 1017.8 hPa | 0 mm | - | - | - |
| 1787842530 | 24.44° C | 80% | 1017.8 hPa | 0 mm | - | - | - |
| 1787842230 | 23.89° C | 81% | 1017.7 hPa | 0 mm | - | - | - |
| 1787841930 | 23.89° C | 82% | 1017.7 hPa | 0 mm | - | - | - |
| 1787841630 | 23.89° C | 81% | 1017.7 hPa | 0 mm | - | - | - |
| 1787841331 | 23.89° C | 82% | 1017.7 hPa | 0 mm | - | - | - |
| 1787841045 | 23.89° C | 83% | 1017.7 hPa | 0 mm | - | - | - |
| 1787840742 | 23.33° C | 83% | 1017.7 hPa | 0 mm | - | - | - |
| 1787840432 | 23.33° C | 85% | 1017.6 hPa | 0 mm | - | - | - |
| 1787840131 | 23.33° C | 83% | 1017.5 hPa | 0 mm | - | - | - |
| 1787839842 | 22.78° C | 85% | 1017.6 hPa | 0 mm | - | - | - |
| 1787839530 | 22.78° C | 87% | 1017.4 hPa | 0 mm | - | - | - |
| 1787839263 | 22.78° C | 86% | 1017.5 hPa | 0 mm | - | - | - |
| 1787838930 | 22.78° C | 86% | 1017.6 hPa | 0 mm | - | - | - |
| 1787838630 | 22.78° C | 85% | 1017.6 hPa | 0 mm | - | - | - |
* Rain latest hour (hover to see other rain measurements)
** Current wind speed in m/s (hover to see current wind gust speed)